User: anonymous   Login
Location: Unspecified
(0.0000°N, 0.0000°E)
Time: 20:18:03
(UTC+00:00)
Language:

Milstar 3 - Orbit

View from above orbital plane
View from above orbital plane
View from above satellite
View from above satellite

Ground track
Ground track

The orbit data is extracted from the following two-line orbital elements,

1 25724U 99023A   21128.80420532 0.00000000  00000-0  00000-0 0    04
2 25724  28.2666 125.3820 2139793 122.9919 237.0076  9.37481677    07
Epoch (UTC): 08 May 2021 19:18:03
Eccentricity: 0.2139793
inclination: 28.2666°
perigee height: 1089 km
apogee height: 5155 km
right ascension of ascending node: 125.3820°
argument of perigee: 122.9919°
revolutions per day: 9.37481677
mean anomaly at epoch: 237.0076°
orbit number at epoch: 0

The dashed part of the orbit path shows where the satellite is in the earth's shadow,  

DLR